Theta_e
315 315 315 315 316 316 316 317 318 319 320 321 321 321 321 323 323 325 325 325 326 326 326 326 326 326 326 326 325 324 324 325 325 325 325 325 325 325 326 327 327 327 325 323 320 317 317 318 319 320 319 318 318 317 319 315 302 295 296 297 297 298 298 299 299 299 300 299 298 297 295 294 294 294 293 292 292 292 291 291 291 291 291 291 290
314 314 314 314 315 314 314 316 317 319 320 320 321 321 322 323 324 325 325 325 326 327 327 327 326 326 326 326 326 325 325 325 324 325 324 324 325 326 327 328 328 327 325 322 321 319 319 319 319 319 317 316 317 316 318 314 302 295 296 296 297 298 298 299 299 300 300 299 298 296 295 295 295 294 293 292 292 292 291 291 291 291 291 290 290
313 313 313 313 313 313 314 315 316 318 319 319 320 320 321 322 324 325 325 325 326 326 326 326 326 326 326 326 326 325 325 325 325 325 325 325 325 325 326 328 327 326 325 323 322 321 320 320 319 318 317 317 317 317 317 312 300 295 296 296 296 298 298 298 299 300 300 299 298 297 296 295 295 294 293 292 292 292 291 291 291 291 291 290 290
312 312 312 312 312 312 312 312 313 315 316 316 317 317 319 321 322 323 324 324 325 325 325 325 325 325 325 325 326 325 326 326 325 325 326 327 327 326 327 327 325 324 325 324 322 321 321 321 320 318 318 319 317 317 316 308 298 294 296 296 297 298 298 298 299 300 300 299 298 298 297 296 295 294 293 293 292 292 291 291 290 290 290 290 289
311 311 311 311 311 310 310 310 311 311 312 312 312 314 315 317 318 319 321 322 323 323 323 323 324 325 325 325 325 325 326 326 326 326 327 327 325 324 324 323 322 323 325 325 323 322 322 321 319 318 318 318 317 316 313 303 295 295 296 296 297 297 298 298 298 299 299 299 298 298 297 296 295 294 294 293 292 291 291 291 290 290 290 289 289
311 311 311 311 310 311 310 310 310 310 310 310 310 311 312 313 314 316 318 320 321 322 322 322 323 324 324 324 324 325 325 326 327 326 326 323 321 320 321 321 322 324 325 324 323 323 323 321 318 317 316 316 315 313 307 299 294 295 296 296 297 297 297 298 298 299 299 298 298 298 298 297 296 295 294 293 292 291 291 291 290 290 290 289 289
311 311 311 310 311 311 310 311 310 310 310 310 310 310 311 311 312 314 316 318 320 320 321 323 324 324 324 324 324 323 323 323 324 324 323 322 320 320 321 322 324 324 323 324 324 323 323 321 318 317 315 314 313 309 301 296 295 295 295 296 297 297 297 298 298 299 299 298 298 298 297 297 297 296 294 293 292 291 291 291 290 290 289 289 289
311 311 311 311 311 311 311 311 311 311 311 311 310 311 310 311 312 314 316 318 319 319 320 321 322 323 324 324 323 322 322 323 324 322 320 320 320 320 322 323 324 323 322 323 324 323 322 321 319 318 314 311 309 302 296 295 295 295 295 296 296 297 297 297 298 299 299 299 299 298 298 298 297 296 294 293 292 291 291 290 290 290 289 289 289
311 311 311 311 311 312 311 312 311 311 312 311 311 311 311 311 312 313 316 318 320 321 321 321 322 322 323 324 323 324 323 323 323 320 318 320 322 322 324 324 324 322 320 322 324 322 321 320 319 317 313 308 302 297 294 295 295 295 296 296 296 297 297 297 298 299 299 299 299 299 299 299 298 295 294 293 292 291 291 291 290 290 290 289 289
311 311 311 311 311 311 311 311 311 311 311 311 311 311 311 311 312 312 313 315 317 318 319 319 320 321 323 323 322 322 321 321 322 320 319 321 323 323 324 324 324 323 321 323 323 321 320 320 319 317 311 303 298 295 294 295 294 295 295 295 296 297 297 298 298 299 300 300 300 300 300 300 297 295 293 293 292 291 291 290 290 290 290 289 289
311 311 310 310 310 310 311 310 310 311 311 311 311 311 311 311 311 311 311 312 313 314 314 314 315 316 319 320 320 320 321 322 322 320 319 321 323 323 324 322 322 323 322 323 323 320 320 320 319 317 310 300 296 294 294 294 294 294 294 294 295 296 296 297 298 298 299 300 300 300 300 299 296 294 294 293 291 291 291 290 290 290 290 289 288
311 311 310 311 310 311 311 311 311 311 311 311 311 311 311 311 311 311 311 311 311 311 311 312 314 316 316 317 318 319 319 319 320 321 321 322 323 323 322 321 321 321 322 322 322 320 320 320 319 317 310 299 294 294 294 294 294 293 294 294 294 295 295 295 297 298 299 300 300 300 300 298 296 295 294 292 291 291 291 290 290 290 290 289 288
312 311 310 311 310 310 310 311 311 311 311 311 311 311 311 311 311 311 310 310 310 310 310 312 314 316 316 316 317 318 319 319 320 321 321 321 322 322 321 320 319 320 320 321 320 319 319 319 318 317 311 299 293 294 294 293 294 293 293 294 294 295 295 295 297 298 299 300 300 300 299 298 297 295 293 292 292 291 291 290 290 290 290 289 288
313 312 311 311 310 310 310 310 310 311 311 311 311 312 312 311 311 311 310 310 310 310 311 311 313 314 316 317 318 318 319 319 319 320 320 321 321 321 320 320 319 319 319 318 318 317 318 317 315 315 311 301 294 294 294 293 294 293 293 294 294 295 295 296 297 299 299 300 300 300 298 297 296 295 294 293 293 292 292 291 291 290 290 289 288
314 313 312 311 311 310 310 310 310 310 310 311 311 311 311 311 311 311 310 310 309 309 309 310 310 311 312 314 315 316 317 317 318 319 320 320 319 318 319 319 319 319 318 317 316 316 316 316 314 313 310 302 295 294 294 293 294 293 293 294 294 294 295 296 297 298 299 299 299 299 298 297 296 295 295 295 294 294 293 293 292 290 289 288 288
314 313 313 312 311 311 310 310 310 310 310 311 311 311 312 311 311 311 310 309 309 308 308 308 308 309 309 310 312 314 315 316 317 318 318 317 317 316 317 318 318 318 317 316 316 315 315 315 313 312 308 301 295 293 294 293 293 293 293 293 294 294 295 296 297 297 298 299 299 299 298 297 297 296 296 296 295 294 294 294 292 290 288 288 288
314 313 313 312 311 310 310 310 310 310 310 311 311 311 311 311 310 310 309 309 309 308 307 308 308 309 308 309 310 311 312 313 314 315 316 316 317 317 317 317 316 316 315 315 315 315 314 314 313 311 307 300 294 293 293 293 293 293 293 293 293 293 294 295 296 296 298 298 298 299 298 297 297 297 296 295 295 294 294 294 292 289 288 288 288
313 313 312 311 310 310 310 310 310 310 310 311 311 311 311 310 310 309 309 310 311 311 310 311 312 311 311 312 312 313 313 314 314 315 316 317 318 318 318 316 316 315 315 315 314 314 314 313 313 311 307 300 295 293 293 293 292 293 293 293 293 293 294 294 295 296 297 297 298 298 298 297 297 297 296 296 295 295 295 294 291 289 288 287 287
313 312 311 311 310 309 309 309 309 310 310 311 311 310 310 310 310 310 310 310 311 312 312 313 314 314 314 314 315 315 316 316 316 317 317 318 318 319 318 317 316 315 315 314 314 314 314 313 312 310 307 301 295 292 292 292 292 292 292 292 292 293 293 294 294 295 296 297 298 298 297 297 297 297 297 296 295 295 295 294 292 289 287 287 287
312 311 311 310 310 309 309 309 309 310 310 311 310 310 309 309 310 310 310 310 310 311 312 312 313 313 314 314 315 316 317 317 317 317 317 317 318 317 317 316 315 314 313 313 313 313 313 312 311 309 306 301 295 292 292 292 292 292 292 292 292 292 292 293 293 294 295 296 297 297 296 296 297 297 297 296 295 295 294 293 292 290 288 287 287
311 311 311 310 310 309 309 309 309 310 310 310 310 310 309 309 309 310 310 309 309 310 311 311 311 312 313 313 314 315 316 316 316 316 315 316 316 315 314 314 313 313 313 313 313 313 313 312 311 308 305 301 296 292 292 292 291 291 291 291 291 291 291 292 292 293 294 295 296 296 296 296 297 297 297 296 295 294 293 292 291 290 289 287 287
311 311 310 310 310 309 309 309 309 309 310 310 310 310 310 310 310 310 309 309 308 309 309 309 309 310 311 312 313 314 315 315 315 315 315 315 315 314 314 313 313 313 313 312 312 312 311 311 310 307 303 299 295 292 291 291 291 291 290 290 290 290 291 291 291 292 293 294 295 296 296 297 297 298 297 296 295 293 291 290 290 289 288 287 286
310 310 310 310 309 310 309 309 309 309 309 310 310 310 310 310 310 310 309 308 308 308 309 308 308 309 310 311 311 312 313 314 314 314 314 314 314 314 314 313 313 312 311 311 310 309 309 309 308 305 301 296 293 291 291 291 290 290 290 289 289 289 290 290 290 291 292 292 294 295 296 297 298 298 297 296 294 292 289 289 288 287 286 287 286
310 309 309 309 309 309 309 309 309 309 309 309 310 310 310 310 310 310 309 309 309 309 309 309 309 309 309 309 310 311 312 313 313 313 313 313 312 312 311 311 310 309 309 308 307 307 307 307 306 302 297 293 291 290 290 290 290 289 289 289 288 289 289 289 289 289 290 291 293 295 296 297 297 298 297 295 293 291 289 289 288 286 286 286 286
309 309 309 309 309 309 309 309 309 309 309 309 309 309 310 310 310 310 310 309 309 309 309 309 309 308 308 309 309 309 310 310 310 311 310 310 310 309 308 308 307 306 306 306 306 306 306 305 303 300 296 292 290 290 289 289 289 289 289 288 288 288 289 289 288 288 289 290 292 293 295 296 297 297 296 294 293 292 290 289 288 287 286 285 285
309 309 309 309 309 309 309 309 309 309 309 309 309 309 309 309 309 310 310 309 309 309 308 308 308 308 308 308 308 308 308 308 308 308 308 308 307 307 306 306 305 305 305 305 305 305 305 304 302 299 296 292 290 290 289 289 288 288 288 288 288 288 288 288 288 288 288 289 290 291 292 293 295 296 295 294 293 292 290 289 288 287 286 285 284
309 309 308 309 308 309 309 309 309 308 309 309 309 309 309 309 309 309 309 309 309 308 308 308 308 308 308 308 307 307 307 307 307 307 307 306 306 306 306 305 305 305 305 304 303 302 301 300 298 296 295 292 291 290 289 289 288 288 287 287 287 287 287 287 287 287 287 288 289 289 290 292 293 294 295 294 292 291 290 289 288 287 286 285 284
308 308 308 308 308 308 308 308 309 309 308 309 309 309 309 309 308 308 308 308 308 308 308 307 307 307 307 307 307 307 307 307 306 306 306 306 305 305 305 305 305 305 304 303 302 301 300 297 295 294 293 292 291 290 290 289 288 288 288 287 287 287 287 287 287 287 287 287 287 288 289 291 292 292 293 292 292 291 291 290 288 287 286 284 284
308 308 308 308 308 308 308 308 308 308 308 308 308 308 308 308 308 307 307 307 307 307 307 307 306 306 306 306 306 306 306 306 305 305 305 305 304 304 304 304 304 303 303 302 302 301 299 297 296 294 292 291 290 290 289 288 288 288 287 287 287 287 286 286 286 287 286 286 286 286 287 288 289 290 290 291 292 292 291 290 289 287 285 284 284
308 308 308 308 308 308 308 308 308 308 308 308 308 307 307 307 307 306 306 306 306 306 306 306 305 305 305 305 305 305 305 304 304 304 304 304 304 303 303 303 302 301 301 301 300 300 299 298 297 295 294 292 291 291 290 289 289 288 288 287 287 286 286 286 286 286 286 286 286 285 286 286 287 287 288 289 289 290 290 290 290 288 286 285 284
308 308 308 308 308 308 308 308 308 307 307 307 307 307 307 307 306 306 305 305 305 305 305 304 304 304 304 304 304 304 304 303 303 303 303 303 303 303 302 302 301 301 300 300 299 299 298 297 296 295 294 293 292 291 290 290 289 289 288 288 287 287 286 286 286 285 285 285 285 285 285 285 285 285 286 286 287 287 288 289 289 288 287 286 285
308 308 308 308 308 308 307 307 307 307 306 306 306 306 306 306 305 305 305 305 304 304 304 304 304 303 303 303 303 303 303 302 302 302 302 301 301 301 301 301 301 300 300 299 299 298 297 296 295 294 293 292 291 291 290 289 288 288 287 287 287 286 286 286 285 285 284 284 284 284 284 284 284 284 284 285 285 285 286 287 288 289 288 287 286
307 307 307 307 307 307 307 306 306 306 306 306 305 305 305 305 305 305 304 304 304 303 303 303 302 302 302 301 301 301 300 300 300 299 299 299 299 298 298 298 298 298 298 297 297 296 295 295 294 293 292 291 290 290 289 288 288 287 287 286 286 286 285 285 284 284 284 284 283 283 283 283 283 283 283 283 283 284 284 285 287 287 287 286 286
307 307 307 307 306 306 306 306 305 305 305 305 304 304 304 303 303 304 304 303 303 302 302 301 301 300 300 299 299 298 298 297 297 296 296 295 295 294 294 294 294 294 294 293 293 293 293 293 293 292 292 291 290 290 289 288 288 287 286 286 285 285 284 284 284 283 283 283 283 283 283 283 283 282 282 282 282 282 282 283 284 286 286 285 285
306 306 306 306 305 305 305 305 305 304 304 304 304 304 303 303 302 302 301 301 301 300 300 299 299 298 298 297 297 296 295 295 294 293 293 292 292 291 291 290 290 290 290 289 289 289 289 289 289 289 289 289 289 289 289 288 288 287 287 286 285 284 284 283 283 283 282 282 282 282 282 282 282 282 282 281 281 281 281 282 283 284 284 284 283
305 305 305 305 304 304 304 304 304 303 303 303 303 302 301 301 300 300 299 299 298 298 298 297 296 296 295 294 294 293 292 292 291 291 290 290 290 289 289 289 288 288 288 288 287 287 287 287 287 287 287 287 287 287 287 287 287 287 286 286 285 284 283 283 283 282 282 282 282 281 281 281 281 281 281 281 281 281 281 281 282 282 282 282 282
304 304 304 304 303 303 303 303 303 302 302 301 300 300 299 298 297 297 297 296 296 295 295 294 293 293 292 291 291 290 290 290 289 289 289 289 288 288 288 288 288 287 287 287 287 287 286 286 286 286 286 286 286 286 286 286 286 286 286 285 285 284 283 283 282 282 281 281 281 281 281 281 281 281 280 280 280 280 280 280 281 281 281 281 280
303 303 303 303 302 302 302 302 301 300 299 298 297 296 296 295 295 294 293 293 293 292 292 291 291 290 290 289 289 289 288 288 288 288 288 288 287 287 287 287 287 287 287 286 286 286 286 286 286 286 286 285 285 285 285 285 285 285 285 285 285 284 283 283 282 281 280 280 280 280 280 279 279 279 280 280 280 280 280 279 279 279 279 279 279
302 302 302 301 301 300 299 298 297 296 295 295 294 293 292 292 292 291 291 291 290 290 290 289 289 289 289 288 288 288 288 287 287 287 287 287 287 286 286 286 286 286 286 286 285 285 285 285 285 285 285 285 285 285 284 284 284 284 284 284 284 284 283 282 281 280 280 279 279 278 278 278 278 278 278 278 279 279 279 279 279 279 278 278 278
301 301 300 299 297 296 295 294 294 293 292 292 291 291 290 290 290 290 289 289 289 289 289 289 288 288 288 288 287 287 287 287 287 287 286 286 286 286 286 285 285 285 285 285 285 285 284 284 284 284 284 284 284 284 284 284 283 283 283 283 283 283 283 282 281 281 280 278 277 277 277 277 277 277 277 277 277 278 278 278 278 278 277 277 277
298 297 296 295 294 293 292 292 291 291 290 290 290 289 289 289 288 288 288 288 288 288 288 288 288 288 287 287 287 287 287 286 286 286 286 286 286 286 285 285 285 285 285 285 284 284 284 284 284 284 283 283 283 283 283 283 283 283 283 283 282 282 282 282 282 281 280 279 277 276 276 276 276 276 276 276 276 277 277 277 277 277 277 276 276
294 293 293 291 291 290 290 290 289 289 289 288 288 288 288 288 288 288 288 288 288 287 287 287 287 287 287 287 286 286 286 286 286 286 286 286 286 285 285 285 285 285 285 285 284 284 284 284 283 283 283 283 283 283 282 282 282 282 282 282 282 282 282 282 282 281 280 279 277 276 276 276 276 275 275 276 276 276 276 276 277 277 276 276 275
291 291 290 290 289 288 288 288 288 288 288 288 287 287 287 287 287 287 287 287 287 287 287 287 286 286 286 286 286 286 286 285 285 285 285 285 285 285 285 285 284 284 284 284 283 283 283 283 283 282 282 282 282 282 282 281 281 281 281 281 281 281 281 281 281 280 279 278 277 276 276 275 275 275 275 275 275 275 275 275 276 276 276 275 275
289 288 288 288 288 287 287 287 287 287 287 287 287 287 287 287 287 287 286 286 286 286 286 286 286 286 285 285 285 285 285 285 285 285 285 284 284 284 283 283 283 283 283 282 282 282 282 282 282 281 281 281 281 281 281 280 280 280 280 280 280 280 280 280 280 280 278 277 276 276 275 275 275 275 274 274 274 274 274 274 275 275 275 275 274
287 287 287 287 287 287 287 287 287 286 287 286 286 286 286 286 286 286 286 286 286 286 285 285 285 285 285 285 285 284 284 284 284 284 283 283 283 283 282 282 282 282 282 282 281 281 281 281 281 281 281 280 280 280 280 280 279 279 279 279 279 279 279 279 279 278 278 277 276 276 275 275 274 274 274 274 273 274 274 274 274 274 274 274 273
287 287 286 286 286 286 286 286 286 286 286 286 286 286 286 285 285 285 285 285 285 285 285 284 284 284 284 284 284 283 283 283 283 283 283 282 282 282 282 282 282 281 281 281 281 281 280 280 280 280 280 280 280 279 279 279 279 279 278 278 278 278 278 278 278 277 277 276 276 276 275 275 274 274 273 273 272 272 273 273 273 274 273 273 273
286 286 286 286 286 286 286 285 285 285 285 285 285 285 285 285 285 285 285 284 284 284 284 283 283 283 283 283 283 283 283 283 283 282 282 282 282 282 282 281 281 281 281 280 280 280 280 280 280 280 280 279 279 279 279 279 279 278 278 277 277 277 277 277 277 276 276 276 276 276 275 275 274 273 273 272 272 271 272 272 272 273 273 272 273
285 285 285 285 285 285 285 285 285 285 285 285 285 285 284 284 284 284 283 283 283 283 283 283 283 283 283 283 283 283 282 282 282 282 282 282 282 281 281 281 281 281 280 280 280 280 280 280 279 279 279 279 279 279 279 278 278 278 277 277 276 276 276 276 276 276 276 276 276 275 275 275 274 274 273 272 271 271 271 271 272 272 272 272 272
284 284 284 284 284 284 284 285 285 285 284 284 284 284 284 283 283 283 283 283 282 282 282 282 282 282 282 282 282 282 282 282 282 281 281 281 281 281 281 280 280 280 280 280 280 279 279 279 279 278 278 278 278 278 278 278 277 277 277 276 276 276 275 275 275 275 275 275 275 275 274 274 274 273 273 272 271 270 270 270 271 271 271 271 271
284 284 284 284 284 285 285 284 284 284 284 283 283 283 283 283 283 282 282 282 282 282 282 282 282 282 282 282 282 281 281 281 281 281 281 281 280 280 280 280 280 279 279 279 279 279 278 278 278 278 277 277 277 277 277 277 276 276 276 276 275 275 275 274 274 274 274 274 274 274 274 273 273 273 272 271 270 270 270 270 270 270 270 270 270
284 285 285 285 285 284 284 284 284 283 283 283 283 282 282 282 282 282 282 282 282 282 282 282 281 281 281 281 281 281 281 280 280 280 280 280 280 279 279 279 279 279 278 278 278 278 277 277 277 277 277 277 277 276 276 276 276 276 275 275 275 274 274 274 274 274 273 273 273 273 273 273 273 272 271 271 270 269 269 270 270 269 269 269 270
Wind_Speed
32 32 32 33 34 34 35 36 37 38 39 40 41 41 41 41 41 40 40 40 39 39 38 37 37 36 37 37 37 36 36 36 36 36 36 37 37 37 38 40 40 38 37 34 32 31 30 30 34 36 36 34 31 31 32 31 31 30 29 28 25 23 21 19 18 17 16 16 15 14 13 13 12 13 13 13 14 15 15 16 16 16 17 18 18
32 32 32 33 34 33 34 35 35 36 37 38 39 40 40 40 40 40 40 40 39 38 38 36 35 35 36 36 36 35 35 35 34 34 34 34 36 38 40 42 41 40 39 34 29 29 27 29 34 35 34 34 32 32 32 32 32 31 30 28 25 23 21 19 19 17 15 14 14 13 12 12 13 13 13 13 14 15 16 16 16 15 16 17 18
32 33 33 34 34 34 35 35 35 36 37 37 38 38 38 39 39 39 39 39 38 37 37 35 34 34 35 35 34 34 34 33 32 33 34 34 36 37 39 41 40 41 42 36 29 28 28 30 33 33 34 34 33 32 31 31 33 31 30 28 25 23 21 20 19 17 15 14 13 12 12 12 13 13 13 13 14 15 16 16 16 16 16 17 18
33 34 34 35 35 35 35 34 34 35 35 36 36 36 37 37 37 38 38 37 37 36 35 34 34 34 34 34 33 33 33 33 32 33 34 37 40 39 38 40 41 44 47 39 29 29 29 30 31 33 35 37 35 33 32 32 33 31 30 28 26 23 22 20 19 17 15 13 12 12 12 12 13 13 13 14 14 15 15 16 16 16 16 16 17
32 33 33 33 33 33 32 32 32 32 33 33 34 34 35 35 35 36 35 35 35 34 33 32 32 33 33 33 32 32 32 33 33 34 34 37 40 39 39 41 41 46 50 39 29 31 31 28 29 32 35 37 36 34 33 34 33 32 30 28 26 24 22 20 19 17 15 14 13 12 12 13 13 14 14 15 15 14 14 15 16 16 17 16 17
27 28 30 30 30 29 29 29 29 29 29 29 30 31 31 31 31 31 31 31 31 30 30 30 31 32 32 32 32 32 31 32 34 35 33 34 36 35 36 38 40 47 51 39 29 33 33 27 27 30 33 35 35 33 34 35 33 32 31 29 27 24 22 21 19 17 16 15 14 13 13 13 14 15 16 16 16 15 14 14 15 16 17 17 17
20 21 22 23 23 23 22 22 23 23 24 24 24 25 25 25 26 26 27 27 28 28 28 29 30 30 30 30 31 31 30 32 35 35 32 33 34 33 34 37 42 49 49 39 32 35 33 28 27 28 30 32 31 32 35 35 33 32 31 29 27 25 22 21 20 18 17 16 15 14 13 14 15 16 17 17 16 15 14 14 14 16 17 17 16
14 15 15 15 15 15 16 16 17 17 18 18 19 20 21 22 24 25 25 26 26 27 27 28 29 29 28 28 29 31 32 33 34 33 31 30 30 30 33 37 43 47 45 40 38 37 34 29 27 27 28 28 29 33 34 34 32 31 31 29 27 25 23 22 21 19 18 16 15 15 14 15 16 18 18 17 16 15 14 13 14 15 17 17 16
11 11 12 12 12 12 13 13 14 14 15 16 17 18 20 22 23 24 26 26 26 26 26 27 27 27 27 29 30 31 30 31 30 28 27 28 28 29 33 36 40 43 41 40 42 39 34 28 27 27 27 26 29 32 32 31 30 30 30 29 28 26 24 23 22 20 19 17 16 16 15 16 18 18 18 17 16 15 14 14 14 15 16 17 16
8 9 10 10 11 12 12 12 13 13 14 15 16 17 18 20 22 24 26 27 28 29 29 30 29 29 29 28 28 28 28 32 32 27 23 25 27 31 34 35 36 37 36 38 42 38 30 27 27 26 26 27 30 32 31 30 29 29 29 28 27 26 25 24 24 21 20 18 17 17 17 17 18 18 18 17 16 15 14 14 15 15 16 18 17
7 8 9 10 11 11 11 11 11 12 13 13 14 15 16 18 20 21 23 26 28 30 30 30 30 29 30 30 29 29 30 31 30 27 25 25 26 30 33 33 33 34 34 36 40 36 29 27 28 26 27 30 32 32 31 30 30 30 29 27 26 24 24 24 23 21 20 19 18 18 18 17 17 17 17 17 16 15 15 15 15 16 17 18 18
8 9 10 10 10 10 10 11 11 11 12 12 13 14 15 16 17 18 19 21 23 25 26 26 26 26 28 29 28 28 27 25 25 28 31 29 28 29 29 29 30 32 34 36 38 35 29 26 27 26 27 31 33 32 31 31 31 31 30 29 28 26 26 25 23 22 22 21 20 20 18 17 16 17 16 16 15 15 16 16 16 17 18 19 19
9 10 11 11 11 10 10 10 10 11 11 12 12 13 14 14 15 15 17 18 19 21 22 23 24 24 25 25 25 25 25 25 26 28 27 24 25 27 26 26 27 28 31 33 35 33 30 27 25 25 27 31 34 33 32 33 33 33 32 31 31 30 29 27 25 24 24 23 23 21 18 16 15 15 14 15 15 16 16 17 17 18 20 20 21
11 11 11 12 12 13 13 12 11 11 12 12 13 14 14 14 14 15 16 17 18 19 20 21 23 24 25 25 26 26 25 25 26 26 23 20 22 23 21 22 23 26 30 32 32 31 30 26 23 23 27 32 35 34 34 35 35 35 34 34 33 31 29 27 26 27 26 26 24 20 17 16 15 14 14 15 16 16 17 18 19 20 21 21 22
15 14 13 13 13 14 14 14 13 13 14 14 14 15 15 15 16 16 16 17 17 18 19 21 23 25 26 26 26 24 23 22 23 22 21 20 19 18 18 20 22 25 28 30 28 27 25 23 22 23 26 32 35 36 36 36 36 36 35 34 33 31 29 28 28 29 28 26 24 21 18 17 15 15 14 14 15 16 17 19 20 21 21 21 23
19 18 17 16 16 16 16 16 16 16 16 16 16 16 16 16 16 16 16 16 16 16 16 16 17 19 21 22 23 23 23 23 22 20 19 19 19 19 20 20 21 23 25 25 23 22 23 23 24 24 26 31 36 37 37 37 37 36 35 34 33 32 30 30 30 30 29 27 25 23 20 18 16 15 15 14 15 16 18 19 20 20 21 22 22
22 21 21 21 20 20 19 19 19 19 18 17 16 16 17 17 16 15 14 13 12 12 11 10 10 10 11 13 15 17 19 20 21 20 20 20 19 19 20 19 19 21 22 22 22 22 24 25 25 24 25 31 35 37 37 37 36 35 35 35 34 33 32 32 32 32 31 30 27 24 21 19 17 17 16 16 17 18 19 19 19 20 22 22 22
24 24 24 23 22 22 22 21 21 20 19 17 17 17 17 16 15 14 13 11 10 9 8 8 9 9 9 9 10 12 13 14 17 18 19 19 19 19 18 16 16 17 19 20 22 23 24 25 24 24 25 29 33 36 36 36 36 36 35 35 35 35 34 34 34 34 33 31 28 24 23 21 19 18 18 18 19 20 20 20 19 20 21 22 21
25 24 23 22 21 21 22 22 22 20 18 17 17 17 16 16 15 14 12 12 12 12 11 11 12 12 12 12 12 13 14 15 16 17 18 18 18 18 17 16 15 15 17 19 21 22 23 23 23 24 25 28 32 35 36 36 36 36 35 36 37 37 35 35 36 36 34 32 28 25 24 22 21 21 21 20 22 22 21 19 19 20 20 21 21
24 23 23 22 21 21 20 20 20 19 18 17 17 16 16 16 16 15 14 14 14 14 14 14 14 14 14 15 15 15 15 15 16 15 16 17 17 17 16 16 15 15 17 19 20 21 21 21 22 23 25 28 31 34 35 35 35 35 36 37 38 37 35 35 36 35 34 32 29 26 25 25 25 24 23 23 24 24 22 20 19 20 20 20 20
24 24 24 22 21 20 19 19 19 19 19 18 18 18 17 17 17 16 16 16 15 15 15 15 16 16 15 15 15 15 15 16 15 14 15 16 16 16 15 15 16 17 18 20 21 21 21 20 20 21 24 27 30 33 34 34 34 36 37 37 36 35 34 35 36 35 34 33 31 29 28 28 28 27 26 25 25 25 23 21 20 21 21 21 21
26 25 24 22 21 20 19 19 19 20 21 20 19 17 16 16 16 16 16 16 16 16 16 16 16 16 16 15 14 14 15 15 15 15 15 16 17 17 17 18 19 21 22 23 24 24 22 21 20 21 23 26 29 31 33 34 35 36 36 36 35 35 36 36 36 37 36 35 34 33 32 31 30 29 28 27 26 26 24 22 22 23 23 22 21
27 25 24 22 21 21 20 20 20 21 21 20 18 16 15 15 16 16 16 16 15 15 15 15 15 15 15 16 16 16 17 17 16 16 17 18 19 20 21 22 24 25 26 27 27 25 24 22 21 21 22 24 27 29 32 34 35 36 36 36 36 37 37 38 39 39 39 38 37 37 35 33 32 31 29 28 27 25 25 25 26 25 24 24 23
26 25 23 22 22 22 21 20 20 20 20 19 17 16 16 16 16 16 16 16 16 16 15 15 14 14 15 16 17 18 18 19 19 19 20 21 22 24 24 25 26 26 26 25 23 22 22 21 21 21 21 23 25 28 31 33 35 35 36 36 37 38 40 40 41 41 41 40 40 40 38 35 33 32 30 29 28 27 28 29 29 26 25 26 26
26 24 23 23 22 22 21 20 20 19 19 18 17 16 16 16 16 15 15 16 15 15 14 14 14 15 16 17 18 19 19 20 20 21 22 23 24 25 24 24 23 22 21 20 19 19 19 19 19 20 22 23 24 26 29 31 33 35 36 38 39 40 41 42 42 43 43 43 42 42 40 37 34 32 31 31 31 31 31 32 30 28 27 29 29
25 24 24 23 23 22 21 20 20 20 19 18 17 17 16 16 16 16 16 16 15 15 15 15 15 15 16 16 17 17 17 17 18 18 19 20 20 21 20 20 20 19 19 18 17 17 17 17 18 20 22 24 26 27 28 29 31 33 36 38 40 41 42 43 43 44 44 43 43 42 40 37 35 34 34 35 34 33 33 33 32 30 30 30 31
24 24 23 23 23 22 21 21 20 20 20 19 18 18 18 18 17 17 16 16 15 15 15 14 14 14 13 12 12 11 11 11 12 13 13 14 14 15 15 16 16 16 16 16 16 15 15 16 18 20 22 24 27 28 29 30 31 32 34 37 39 40 41 42 43 44 44 44 43 42 40 39 39 40 39 38 36 33 33 34 34 32 31 31 32
23 22 21 21 21 21 21 21 20 20 20 20 20 19 19 18 17 16 16 15 14 13 12 12 11 10 9 8 7 7 7 7 7 7 8 9 10 11 12 13 14 15 15 15 16 16 16 17 18 20 22 24 26 28 30 31 32 33 34 36 37 39 39 41 42 44 44 45 45 44 42 42 43 42 41 39 38 36 34 34 34 33 32 31 33
21 20 20 20 20 21 21 21 21 21 21 22 21 20 18 17 16 16 15 14 13 12 11 10 9 8 8 7 6 5 5 5 5 6 7 8 9 10 11 12 13 14 15 16 16 17 18 19 20 21 22 24 26 27 29 30 31 33 34 35 37 38 39 40 41 42 43 44 45 45 45 44 43 42 40 40 40 39 37 36 36 34 32 32 34
21 21 21 21 21 22 22 23 23 23 23 23 23 22 21 20 18 16 14 13 12 11 10 9 9 8 7 6 5 5 5 5 5 6 7 8 9 10 11 12 13 14 15 16 16 17 18 19 20 21 23 24 25 27 28 29 30 31 32 34 35 37 38 39 40 40 41 42 43 44 45 45 44 43 42 42 41 40 39 38 38 36 34 34 35
21 21 22 22 22 23 24 24 25 24 22 21 21 21 21 20 18 17 15 13 12 12 11 10 9 8 7 6 5 4 4 4 5 6 7 8 9 10 11 11 12 13 15 16 16 17 18 19 19 20 22 23 24 25 26 27 28 29 29 30 32 33 35 36 37 37 38 39 40 41 43 44 44 43 43 42 42 41 41 40 39 38 36 35 35
20 21 22 23 23 24 24 24 24 23 22 21 19 18 17 17 17 16 15 14 12 11 11 10 8 7 6 4 4 3 3 4 5 6 7 8 9 9 10 10 11 13 14 15 15 16 16 17 18 18 19 21 21 22 23 24 25 26 26 28 29 29 30 31 32 33 35 36 38 39 41 41 42 42 43 43 43 43 42 41 41 40 37 36 36
20 22 24 25 25 24 24 23 23 22 21 20 19 17 16 15 15 15 15 14 13 11 10 9 7 5 4 3 2 3 3 5 6 7 8 9 9 10 10 10 11 12 13 13 13 13 14 15 15 15 16 17 18 19 20 21 22 23 24 25 26 26 27 27 28 30 32 33 35 37 38 39 40 41 42 43 43 44 44 43 42 41 40 38 37
21 22 24 25 25 24 23 22 21 21 20 19 18 18 17 16 14 14 13 13 12 10 8 7 5 4 3 3 3 4 5 6 7 8 9 9 10 10 10 10 10 11 12 12 11 11 12 12 13 13 14 15 16 17 18 19 20 21 23 24 24 24 25 26 27 28 29 30 32 33 34 35 37 38 39 40 41 43 43 43 43 43 42 40 38
23 22 23 23 23 23 22 22 21 20 20 19 18 18 17 16 15 14 12 11 9 8 7 6 5 4 4 4 5 5 6 7 7 8 9 9 9 10 10 9 9 10 11 12 12 12 12 12 13 14 14 15 17 18 19 20 21 22 23 24 24 24 25 25 27 27 27 28 30 30 31 32 33 34 35 37 38 39 40 41 42 42 42 40 39
24 23 23 23 22 22 22 21 20 20 19 19 18 17 16 15 14 13 11 10 8 7 6 5 4 4 4 4 5 6 6 7 7 8 8 9 9 10 10 10 10 10 11 12 13 14 15 15 15 16 16 17 18 19 20 22 22 23 24 25 25 26 26 26 27 27 27 28 29 29 30 31 31 31 32 34 35 36 37 37 38 39 39 38 38
24 23 24 23 23 22 22 21 21 20 19 19 18 17 16 14 13 11 10 9 8 6 6 5 4 4 4 4 5 5 6 7 7 8 8 9 10 10 11 11 11 12 12 13 14 16 17 17 18 19 20 20 21 22 23 24 25 26 26 27 27 28 28 27 27 28 28 29 29 29 30 30 30 30 31 32 33 33 34 34 35 36 36 36 37
23 23 23 23 23 22 22 22 21 20 19 18 17 15 14 13 12 10 9 8 7 6 6 5 5 4 4 5 5 5 6 6 7 8 8 9 10 11 11 12 13 13 14 14 16 17 19 19 20 21 22 23 24 25 26 27 28 29 30 30 31 31 30 30 30 30 30 31 31 31 30 30 30 29 30 31 32 32 32 32 33 34 34 35 36
24 24 24 23 23 22 21 20 20 19 18 17 16 15 13 12 11 10 9 8 7 6 5 5 5 5 5 6 6 6 7 7 7 8 9 10 11 11 12 13 14 14 15 16 17 18 20 21 22 23 24 25 26 27 28 29 30 31 32 33 34 34 34 34 33 33 33 33 33 32 32 32 31 30 30 31 32 31 31 31 32 33 33 34 35
26 25 25 24 23 22 20 19 19 18 16 15 14 13 12 11 10 9 8 7 7 6 6 6 6 7 7 7 7 8 8 8 8 9 10 11 12 13 14 15 15 16 17 18 19 20 21 22 23 24 25 26 27 28 30 31 32 33 34 35 36 37 37 37 37 36 36 36 34 33 33 32 31 31 31 31 31 31 31 31 31 31 32 33 33
26 25 24 23 22 21 20 19 18 17 15 14 13 12 11 11 10 9 8 7 7 7 7 7 8 8 9 9 9 9 10 10 11 11 12 13 14 15 17 18 18 19 20 21 22 23 24 24 25 26 27 28 29 29 31 32 33 34 35 36 37 38 38 39 39 39 39 38 36 35 34 32 31 31 31 31 30 30 30 30 30 31 31 32 32
24 24 23 22 21 19 18 17 16 15 14 13 13 12 11 10 9 9 8 8 8 8 8 9 9 10 10 10 11 11 12 12 13 14 15 16 17 18 19 20 21 22 23 24 25 26 27 27 27 28 28 29 30 31 32 33 34 35 36 37 38 38 39 39 40 40 39 39 38 36 35 34 32 32 31 31 30 30 30 30 30 30 31 31 31
22 22 21 20 19 18 16 15 15 14 13 12 11 11 10 9 9 8 8 8 8 9 9 10 10 11 11 12 12 13 13 14 15 16 17 18 19 20 21 22 23 23 24 25 26 27 28 29 29 29 29 30 30 31 32 33 34 35 36 37 38 38 39 40 40 40 39 38 37 36 36 35 34 33 32 31 31 30 30 30 30 30 30 30 29
20 19 19 18 17 16 15 14 13 12 11 11 10 9 9 8 8 8 8 8 9 9 10 10 11 12 13 13 14 14 15 16 17 18 19 20 21 22 23 23 24 24 25 26 26 27 28 29 29 30 30 30 30 31 32 32 33 34 35 36 37 38 38 39 39 39 38 37 37 36 35 35 34 33 33 32 31 30 30 30 29 30 30 29 29
18 17 16 15 15 14 13 12 11 10 9 9 8 8 8 7 7 8 8 8 9 10 11 12 13 14 15 16 16 17 18 19 20 21 22 22 22 23 23 24 24 25 25 26 26 27 28 29 30 30 30 30 30 30 31 31 32 33 34 35 36 37 38 38 38 37 36 36 36 35 34 34 33 33 32 32 31 30 30 30 29 29 29 29 29
16 15 14 13 12 11 10 9 9 8 8 7 7 7 7 7 7 8 8 9 10 11 13 14 15 16 17 18 19 20 21 22 22 23 23 23 23 24 24 25 25 26 26 27 27 28 28 29 30 30 31 30 30 30 30 30 31 31 32 33 34 35 36 36 37 37 36 35 35 34 34 33 33 33 32 31 31 31 31 30 30 29 29 28 27
14 13 12 11 10 10 9 8 8 7 7 6 6 6 7 7 8 9 10 12 13 15 16 17 18 19 20 21 22 23 23 23 24 24 24 25 25 25 26 26 27 27 27 28 28 28 29 29 30 30 30 30 30 30 30 30 30 30 31 31 31 32 32 33 34 35 35 35 34 34 33 33 33 32 32 31 31 31 30 30 29 29 28 26 26
13 12 11 10 9 9 8 7 6 6 6 6 7 8 9 10 11 13 14 15 17 18 19 20 21 22 22 23 23 24 24 24 25 25 25 26 26 27 27 28 28 28 28 28 28 29 29 29 29 29 29 29 29 29 29 29 29 29 29 29 29 29 30 30 31 32 32 33 33 33 32 32 32 32 32 31 31 30 29 29 28 28 26 25 25
11 10 9 8 7 6 6 6 6 6 7 9 10 11 12 14 15 16 17 18 19 20 21 22 23 23 24 24 25 25 25 26 26 26 26 27 27 28 28 28 28 28 28 28 28 28 27 27 26 26 26 26 27 27 27 27 27 27 27 27 27 27 28 28 29 29 30 31 31 31 31 30 30 30 31 31 30 29 28 27 27 26 25 24 24
8 7 6 5 5 6 6 7 9 10 11 12 14 15 16 17 18 18 19 20 21 22 23 24 25 25 25 26 26 26 26 27 27 27 27 27 27 27 27 27 27 27 27 27 26 25 25 24 23 23 23 23 23 24 24 25 25 25 26 26 26 26 26 26 27 27 28 29 29 29 28 28 28 29 30 30 29 28 27 26 25 24 24 23 23
5 5 6 6 7 9 10 11 13 14 15 16 17 18 18 19 20 20 21 22 23 24 25 26 26 26 27 27 27 27 27 27 27 27 27 27 27 27 26 26 26 26 25 24 23 22 22 21 21 21 21 21 21 21 22 22 23 23 24 25 26 26 25 25 26 26 26 26 27 27 27 26 26 27 28 28 28 26 25 24 23 22 22 22 22
Wind_Direction
243 243 244 246 248 250 252 254 255 257 258 260 261 262 263 264 265 266 267 267 267 266 265 265 264 264 264 263 263 262 261 261 260 260 259 259 258 257 257 254 253 256 254 252 262 269 264 257 253 251 253 260 261 258 258 249 235 230 230 230 228 226 226 226 226 230 237 238 239 245 254 263 274 284 288 291 294 295 298 300 305 314 320 323 328
240 241 242 244 245 247 249 252 253 255 256 258 260 261 263 264 265 266 266 267 267 266 267 266 265 265 264 263 263 262 262 262 261 261 260 259 258 257 256 253 253 257 253 250 261 271 266 256 252 254 258 262 260 258 257 246 232 229 230 229 227 226 225 226 227 230 236 239 241 247 257 267 275 283 288 289 293 295 297 300 305 314 319 321 325
238 240 241 243 244 246 248 250 251 252 254 255 257 259 261 263 264 265 266 267 267 267 267 267 266 266 265 265 265 264 264 263 263 263 262 262 260 257 255 255 257 259 254 249 256 267 266 257 254 258 260 256 254 257 253 239 229 229 231 229 228 226 224 225 229 232 237 241 245 252 260 269 277 283 287 288 291 292 295 300 307 314 317 320 322
239 240 241 243 244 246 247 248 250 251 252 254 256 258 259 261 262 263 264 265 266 266 266 266 266 265 265 265 265 265 265 264 264 264 262 259 256 253 254 257 258 260 254 247 253 263 263 259 257 260 260 255 254 255 244 229 225 227 229 229 227 226 224 225 228 233 238 244 249 256 262 269 277 283 285 286 286 288 293 300 307 311 315 318 320
241 242 243 245 246 247 248 249 250 251 252 253 255 256 257 258 259 260 261 262 263 263 263 263 263 263 263 264 264 264 263 263 263 261 256 255 255 253 255 256 257 260 254 245 251 260 257 259 263 263 261 257 256 251 233 220 221 225 227 228 227 226 224 224 227 232 239 245 249 256 264 271 277 281 283 284 283 285 292 299 304 308 312 316 318
241 242 243 245 246 247 248 249 249 249 250 250 252 252 253 254 255 256 257 258 259 260 260 260 259 260 260 261 262 262 262 261 259 255 254 259 261 257 256 256 258 261 253 245 255 261 252 255 267 265 262 260 256 242 223 216 221 224 227 228 227 227 225 225 227 230 237 244 249 257 265 272 278 281 282 281 282 286 291 296 301 305 308 312 317
235 236 237 239 241 243 244 245 245 245 245 246 247 249 250 251 253 254 254 254 254 253 254 256 257 259 260 261 262 261 261 259 256 255 259 265 265 258 256 259 262 260 251 244 256 260 249 253 266 267 264 261 249 230 218 218 222 226 228 229 228 228 227 226 227 230 236 242 249 258 264 271 278 280 280 278 279 284 289 294 300 303 305 310 316
225 225 226 228 229 230 232 233 235 237 239 241 244 246 249 251 252 252 252 252 253 252 252 253 256 258 257 259 261 260 260 259 257 261 265 264 260 258 259 263 265 260 249 244 253 256 247 252 266 267 264 257 238 223 219 222 225 227 230 229 228 229 229 228 228 231 236 241 248 256 262 271 277 277 276 276 278 282 287 293 298 300 302 308 315
213 214 216 217 217 218 221 225 229 233 236 240 242 245 248 250 251 251 248 247 247 248 248 249 251 252 252 254 256 257 258 257 256 261 265 260 260 262 265 268 270 264 253 248 254 254 247 253 267 267 260 245 227 220 222 227 231 233 233 232 230 229 228 229 230 232 237 242 247 254 262 271 274 273 273 276 279 283 287 292 295 297 302 307 311
200 205 208 211 213 217 221 224 229 233 237 241 244 246 248 249 250 251 249 247 245 243 244 243 243 244 245 248 250 249 251 253 254 257 260 260 266 270 270 271 272 268 259 253 256 256 250 257 269 265 252 236 221 219 223 228 233 236 237 238 236 235 233 232 232 234 239 245 249 255 264 270 271 271 273 276 279 283 288 291 294 298 303 306 307
200 202 205 210 213 216 220 224 228 233 237 240 244 246 248 249 249 249 248 248 248 247 247 245 242 241 240 242 246 247 251 255 254 253 255 259 268 276 276 273 269 266 260 256 258 258 252 258 267 261 247 231 220 219 223 227 231 233 234 236 236 237 238 237 235 237 242 248 251 255 263 268 268 270 274 277 280 284 288 290 295 300 302 302 303
219 217 216 219 220 219 221 224 228 233 236 239 242 244 245 246 247 248 247 247 246 245 244 241 239 239 240 243 245 246 251 255 254 258 262 263 266 273 277 275 268 263 260 259 261 258 251 257 267 263 247 230 221 221 223 225 229 231 231 233 232 232 234 234 236 240 245 250 252 256 262 265 267 272 276 278 281 284 288 292 296 299 299 299 301
233 230 229 231 231 230 231 230 232 235 238 240 241 242 244 244 246 247 247 246 244 242 239 238 237 239 242 246 246 247 251 253 255 263 270 266 263 267 271 272 267 262 260 262 265 260 252 257 268 266 249 231 222 222 224 226 229 229 230 232 232 232 232 233 237 243 248 251 253 255 259 263 268 275 277 278 282 287 290 293 296 297 297 298 300
241 239 237 237 237 239 240 240 241 241 241 241 240 241 243 242 242 243 243 243 242 240 239 238 237 238 240 243 244 246 250 250 251 259 266 264 263 264 266 268 267 263 260 261 262 257 254 261 273 270 252 234 225 224 226 228 230 231 232 233 234 234 234 235 241 248 250 250 252 253 255 259 266 270 273 277 283 287 290 292 295 295 295 296 298
241 239 238 238 238 240 241 241 241 240 239 239 237 237 237 237 238 239 240 242 243 242 241 240 238 237 237 238 239 242 245 247 249 255 260 265 270 271 271 273 273 269 266 265 264 261 262 270 276 267 250 236 230 228 229 231 232 233 235 237 237 238 237 240 246 250 250 249 249 250 251 253 258 262 268 276 281 285 290 293 294 293 291 292 295
238 237 237 236 236 235 234 234 234 234 234 234 233 232 233 233 235 235 236 237 237 238 238 237 237 237 237 236 235 236 239 242 247 253 257 264 273 276 274 274 274 273 269 267 266 264 266 270 270 262 246 234 231 232 232 234 235 236 238 239 240 240 240 243 246 247 245 245 244 246 247 247 251 258 265 274 279 284 291 295 294 290 287 289 292
237 236 234 233 232 231 229 228 229 229 230 230 229 230 230 230 230 230 230 230 229 230 228 226 228 230 232 233 231 232 236 238 241 246 251 256 260 261 262 265 268 269 266 261 258 260 266 270 271 263 245 233 232 234 235 237 238 239 241 241 242 242 241 243 244 243 243 243 242 244 246 245 250 257 264 273 280 284 291 295 293 286 285 288 291
237 237 237 237 237 235 231 228 227 227 227 227 226 227 226 225 224 223 221 218 217 218 214 212 219 222 224 226 225 225 229 232 234 237 242 246 247 247 248 248 250 255 257 258 261 266 271 273 271 262 246 236 235 236 237 240 240 242 244 244 244 244 244 245 244 243 243 243 242 244 245 246 251 257 265 274 280 285 291 294 290 285 285 289 292
244 247 250 249 247 244 238 234 232 229 227 225 224 224 223 219 218 216 213 209 209 211 211 212 217 220 222 224 224 224 227 229 231 235 239 242 242 240 236 232 235 245 253 261 266 269 271 272 269 261 247 237 235 237 238 240 241 244 245 245 246 246 247 247 246 245 244 244 243 245 246 247 252 258 266 273 278 284 290 290 286 283 284 288 291
252 255 254 251 248 247 244 241 240 235 229 224 221 221 219 216 215 215 214 213 213 214 216 219 221 223 225 226 226 227 230 232 235 239 242 239 234 230 228 231 240 251 257 262 265 267 269 270 269 263 250 239 236 237 239 240 241 244 245 245 247 249 249 248 247 246 246 245 244 244 245 247 251 258 265 270 274 280 285 284 281 279 278 281 284
252 250 248 245 244 244 242 241 240 237 233 227 221 220 219 217 218 220 219 221 220 218 220 223 223 223 224 226 227 228 231 235 240 246 247 239 230 227 233 244 254 261 264 265 267 269 271 273 271 266 256 245 240 240 241 241 242 244 245 247 249 250 250 250 250 249 247 246 244 244 244 247 251 257 263 267 271 276 278 278 277 274 274 276 278
245 243 241 240 238 238 237 236 236 236 235 232 226 225 223 222 224 224 223 220 218 218 222 227 227 224 221 220 222 224 227 232 237 242 244 240 236 239 247 256 262 266 268 270 273 276 278 277 273 265 256 249 245 244 245 245 244 245 246 248 249 249 250 250 250 249 248 247 246 246 246 248 253 258 263 266 270 274 275 274 273 272 272 274 275
240 238 236 234 232 232 233 233 234 234 235 235 231 228 225 223 223 222 221 220 218 219 224 229 228 224 220 219 220 220 222 226 230 234 237 238 240 245 251 257 263 267 271 274 277 278 278 275 269 259 253 251 250 249 249 249 248 248 249 249 249 249 251 251 250 250 249 248 248 248 249 251 255 260 265 269 272 274 272 270 269 269 271 273 273
236 234 231 228 228 230 232 234 235 234 233 233 230 226 222 221 220 218 216 217 217 218 220 222 221 216 214 216 218 220 222 225 227 231 235 240 245 250 255 261 265 269 271 274 275 275 273 270 263 253 249 250 252 253 253 253 253 252 252 251 250 250 251 251 251 251 251 251 251 252 253 255 258 263 268 271 272 271 268 266 268 270 272 273 272
233 230 228 227 227 230 233 235 235 233 230 228 225 221 218 217 215 213 211 211 211 209 208 210 211 210 212 214 217 220 223 226 230 234 238 242 247 251 255 259 261 262 264 266 267 266 265 263 256 248 246 248 251 252 254 255 256 255 254 253 252 252 253 253 253 253 255 255 256 257 258 259 262 266 269 270 270 270 269 268 271 273 273 273 273
230 228 227 227 229 231 234 234 231 227 222 219 215 211 209 208 205 204 202 202 201 201 201 204 207 210 213 216 219 223 225 229 234 237 241 244 248 251 253 255 256 257 257 257 258 259 260 258 252 246 245 247 250 251 252 253 254 256 256 255 254 255 256 256 256 257 258 260 262 264 265 266 267 268 268 268 269 271 271 271 273 273 273 274 274
229 229 228 229 230 231 231 228 223 216 209 205 202 199 197 195 194 194 194 195 196 197 200 204 209 212 215 218 222 227 230 233 239 243 248 252 255 257 260 262 262 260 258 256 255 255 254 253 251 248 246 248 251 253 254 254 254 256 257 258 259 259 260 260 260 261 262 264 266 267 267 268 268 268 268 269 270 272 272 272 273 274 274 274 273
227 227 227 227 226 224 221 215 209 203 198 194 193 192 190 188 187 188 189 191 193 195 197 201 204 206 208 211 215 221 227 235 243 252 260 264 268 271 273 274 273 269 264 261 258 256 253 250 249 250 250 252 254 256 258 259 259 259 260 261 263 264 264 264 264 264 264 265 266 267 267 268 268 269 271 272 274 274 274 274 274 274 274 272 271
220 219 218 217 214 210 207 201 195 192 190 187 185 183 183 184 184 185 186 186 187 187 187 189 191 190 192 196 203 215 230 242 253 261 269 273 276 279 280 279 279 277 273 271 268 264 261 257 255 254 255 256 259 261 262 264 265 264 265 265 267 268 268 268 268 268 268 268 268 269 269 270 271 272 273 275 276 278 279 278 278 276 274 271 269
211 208 207 206 203 198 193 189 186 186 186 185 182 179 179 180 180 179 178 178 179 178 177 178 182 185 188 192 199 214 233 251 263 270 276 280 282 284 285 285 285 284 282 281 279 276 274 271 269 267 266 265 266 266 267 269 270 270 270 270 271 272 273 274 274 275 275 274 273 273 272 271 272 274 275 277 279 280 282 281 280 277 274 271 269
206 203 200 197 193 190 186 184 183 182 182 183 182 180 178 176 174 173 172 171 173 174 174 178 183 185 187 191 201 218 237 255 269 278 284 287 289 291 292 292 292 289 288 287 285 284 283 281 279 277 275 274 274 274 274 274 274 275 275 274 275 275 276 277 279 280 280 279 278 276 274 273 274 275 276 278 279 280 280 280 278 277 275 272 270
200 197 192 187 185 184 183 182 181 179 178 178 177 177 177 175 172 170 169 170 173 174 175 178 180 183 187 194 210 234 258 273 283 290 293 293 295 295 295 295 294 291 290 291 291 292 291 289 287 285 283 282 282 281 281 280 280 280 280 279 279 279 279 281 283 283 281 280 279 277 276 276 276 276 276 277 277 277 277 277 276 276 274 272 269
189 190 186 182 182 182 180 180 180 177 176 174 170 168 170 173 173 172 171 172 174 175 177 178 178 181 191 208 236 261 278 286 291 294 296 297 298 299 298 298 296 294 294 296 297 297 296 294 295 294 292 290 290 288 286 286 286 285 285 284 284 284 284 285 284 282 281 281 280 279 279 278 277 277 276 276 276 276 276 275 275 274 272 269 266
181 187 186 183 182 180 177 177 176 173 171 170 168 167 167 169 173 175 176 176 176 176 179 182 184 193 213 240 265 277 285 290 292 294 295 296 298 300 301 303 303 301 302 303 303 301 298 297 298 298 296 295 294 292 291 291 290 289 289 288 288 288 287 286 284 282 282 282 282 281 281 280 280 279 279 278 278 277 276 275 274 272 271 268 266
180 185 186 183 181 177 175 173 172 171 170 169 170 171 172 172 173 174 175 176 176 179 185 191 200 216 233 252 267 276 283 287 289 291 293 294 296 299 302 304 305 305 307 308 307 305 303 301 299 296 294 293 293 293 293 292 292 291 290 290 290 290 289 288 286 286 286 285 284 283 284 283 283 282 283 282 281 279 278 277 276 274 272 271 268
178 182 183 180 178 176 174 171 171 171 171 170 171 171 171 172 173 174 175 176 179 186 193 197 208 224 240 256 268 274 279 283 285 288 292 294 296 299 300 302 304 305 306 306 306 305 305 304 302 299 297 295 294 293 291 290 290 289 288 289 289 290 290 289 289 289 288 287 287 286 286 286 286 287 286 285 283 282 281 280 279 277 275 272 269
178 181 180 177 175 174 173 171 170 170 170 170 170 170 171 172 173 174 176 178 181 188 194 200 210 222 235 251 263 269 274 280 284 287 289 291 293 297 298 300 301 303 303 302 302 302 303 303 301 299 298 296 295 293 291 291 290 288 288 288 287 287 288 288 288 289 288 287 287 288 288 289 290 290 289 288 286 285 284 283 281 279 278 275 271
176 179 179 176 173 173 173 172 170 169 169 168 168 168 170 171 170 171 174 176 180 186 192 196 207 219 229 242 256 264 270 276 281 284 288 290 293 296 298 299 300 301 301 300 299 298 298 298 298 298 297 297 296 295 294 293 292 290 289 289 288 287 287 287 287 287 287 287 287 288 289 289 290 290 290 289 287 286 285 284 283 281 278 275 271
174 176 175 173 170 170 171 170 169 168 168 168 166 165 166 167 167 169 173 177 182 189 195 205 217 228 235 243 252 260 267 275 283 288 291 294 296 298 299 299 299 299 298 297 296 296 296 297 298 298 299 299 299 299 298 297 296 295 294 293 292 291 291 290 289 288 287 286 287 287 288 288 288 289 289 288 287 287 287 286 284 282 279 276 273
174 173 171 170 168 167 167 167 167 166 166 166 164 163 164 167 169 172 177 183 192 201 213 224 235 244 250 253 258 265 271 276 282 286 288 292 294 295 296 296 296 296 296 297 297 296 297 298 299 299 299 300 300 300 300 299 299 299 298 297 296 295 294 293 291 289 288 287 286 287 287 287 288 288 286 286 287 288 288 287 285 283 280 278 275
171 170 168 166 166 166 166 166 165 164 164 164 165 165 168 171 175 179 186 196 209 219 228 237 243 249 255 259 263 269 272 276 279 281 285 287 288 290 291 292 294 295 297 297 297 297 297 298 299 299 299 300 300 300 299 299 299 299 298 297 297 296 295 294 292 291 289 287 285 285 286 286 286 285 284 285 286 287 286 285 284 282 280 278 275
167 168 166 164 164 165 166 165 165 165 165 167 169 171 174 179 184 191 200 210 219 227 234 242 248 253 258 262 266 270 272 276 279 282 284 286 287 288 290 291 292 294 295 295 295 296 296 297 297 298 298 298 298 298 298 298 298 298 297 297 297 296 296 295 294 293 291 289 287 286 285 284 283 282 281 282 283 282 282 283 283 282 280 277 273
165 166 164 163 162 162 164 165 167 168 170 172 175 178 183 189 196 204 212 220 228 236 243 248 253 258 262 266 269 272 275 278 281 284 285 286 287 288 289 289 290 291 291 292 293 293 294 295 295 296 296 296 296 297 297 297 297 297 297 297 296 296 296 295 294 293 292 291 289 287 286 284 282 279 278 278 278 278 279 280 280 280 279 276 272
162 162 163 163 162 162 164 168 169 171 174 178 182 188 195 202 210 217 225 232 239 246 251 255 259 264 267 270 273 276 280 283 285 286 287 287 287 287 288 288 289 290 290 291 291 291 292 293 293 293 294 295 295 295 296 296 297 296 296 296 296 295 295 294 293 291 290 289 288 287 286 285 283 280 277 276 275 275 276 276 276 278 278 275 270
159 161 162 163 162 164 167 170 172 177 182 188 194 201 208 214 222 229 237 243 248 253 258 263 266 270 274 277 280 283 285 286 287 286 286 286 286 287 288 288 289 289 289 289 290 290 290 291 292 292 293 294 294 295 295 295 295 295 295 295 295 295 295 294 292 290 289 287 287 286 285 284 282 280 277 275 274 273 273 273 273 275 276 274 268
159 160 161 162 164 167 172 175 179 185 191 198 206 214 220 228 237 244 252 257 263 267 271 274 277 280 282 284 286 286 287 287 286 286 286 287 287 288 289 289 289 289 289 290 290 291 291 292 293 294 295 295 296 297 297 296 296 296 296 296 296 296 295 295 294 292 289 287 285 284 283 282 280 278 276 275 274 273 272 271 271 272 273 271 266
159 160 162 166 169 173 178 182 186 193 202 211 221 232 243 253 260 267 272 275 279 282 282 283 284 285 285 285 285 285 286 286 286 287 288 288 289 289 289 289 290 291 291 292 293 293 294 295 295 296 297 297 298 299 300 300 300 300 300 300 299 298 298 297 295 293 291 289 286 284 282 280 278 276 275 274 273 273 272 270 268 270 271 268 263
161 164 168 171 175 179 185 190 198 210 224 238 250 260 268 275 279 282 285 286 286 286 285 285 284 284 284 284 285 285 286 287 288 288 289 289 290 290 291 292 293 293 294 294 295 295 296 296 296 297 298 299 300 301 302 303 303 304 305 305 305 304 302 300 297 294 292 289 286 284 281 278 277 275 274 273 272 272 271 270 269 270 270 265 260
164 168 173 177 183 192 204 218 234 248 259 268 275 279 282 284 286 286 286 286 285 284 283 283 283 283 284 285 285 286 287 288 288 289 290 291 291 292 292 293 294 294 295 296 296 296 297 297 297 299 300 301 302 304 305 306 308 309 310 310 309 307 305 303 300 298 294 290 286 283 279 276 275 273 273 272 271 270 270 270 270 270 268 263 258
170 178 188 202 218 236 251 261 269 275 279 281 282 284 284 283 283 283 282 282 282 282 282 283 283 284 285 285 286 287 288 288 290 290 291 291 292 292 293 294 294 295 296 297 297 297 298 298 299 300 301 302 305 307 309 311 313 314 314 313 311 309 308 306 304 301 297 292 288 283 279 276 274 273 272 270 269 268 268 268 268 268 266 262 257
199 217 235 251 260 267 273 277 279 280 280 280 280 280 280 279 280 280 280 280 281 281 282 283 284 285 286 286 287 288 289 290 291 291 291 291 291 292 293 294 295 295 296 296 297 298 298 299 300 302 303 305 308 310 313 316 317 317 316 315 313 311 310 309 307 304 300 295 290 285 280 277 275 274 273 271 269 267 266 266 265 265 263 260 257